| time (UTC) | temp F | wind direction | speed MPH | gust MPH | rain 1hr in | rain 24hr in | rain mn in | humidity % | barometer mb |
| 20260507120518 | 48 | 315 | 1.0 | 5.0 | 0.00 | 0.14 | 0.09 | 86 | 1008.5 |
| 20260507115518 | 48 | 315 | 3.0 | 9.0 | 0.00 | 0.14 | 0.09 | 87 | 1008.4 |
| 20260507114538 | 48 | 315 | 3.0 | 10.0 | 0.01 | 0.14 | 0.09 | 87 | 1008.4 |
| 20260507113518 | 48 | 315 | 3.0 | 8.0 | 0.01 | 0.14 | 0.09 | 87 | 1008.3 |
| 20260507112518 | 48 | 315 | 1.0 | 5.0 | 0.01 | 0.14 | 0.09 | 87 | 1007.9 |
| 20260507111518 | 48 | 315 | 2.0 | 5.0 | 0.01 | 0.14 | 0.09 | 88 | 1008.2 |
| 20260507110520 | 47 | 315 | 1.0 | 4.0 | 0.02 | 0.14 | 0.09 | 88 | 1008.2 |
| 20260507105518 | 47 | 0.0 | 2.0 | 0.03 | 0.14 | 0.09 | 87 | 1008.5 | |
| 20260507104542 | 47 | 0.0 | 4.0 | 0.02 | 0.13 | 0.08 | 87 | 1008.0 | |
| 20260507103522 | 47 | 315 | 1.0 | 7.0 | 0.04 | 0.13 | 0.08 | 87 | 1008.1 |
| 20260507102557 | 48 | 315 | 2.0 | 9.0 | 0.05 | 0.13 | 0.08 | 87 | 1008.2 |
| 20260507102020 | 48 | 315 | 1.0 | 6.0 | 0.06 | 0.13 | 0.08 | 87 | 1008.0 |
| 20260507101018 | 48 | 315 | 2.0 | 7.0 | 0.05 | 0.12 | 0.07 | 87 | 1008.0 |
| 20260507100018 | 48 | 315 | 3.0 | 9.0 | 0.04 | 0.11 | 0.06 | 86 | 1007.8 |
| 20260507095018 | 48 | 315 | 3.0 | 8.0 | 0.04 | 0.11 | 0.06 | 86 | 1007.8 |
| 20260507094018 | 48 | 315 | 3.0 | 9.0 | 0.04 | 0.10 | 0.05 | 85 | 1007.7 |
| 20260507093018 | 48 | 315 | 5.0 | 13.0 | 0.02 | 0.08 | 0.03 | 85 | 1007.6 |
| 20260507092018 | 49 | 315 | 7.0 | 12.0 | 0.01 | 0.07 | 0.02 | 85 | 1007.9 |
| 20260507091040 | 49 | 315 | 5.0 | 12.0 | 0.01 | 0.07 | 0.02 | 85 | 1007.5 |
| 20260507090018 | 49 | 293 | 4.0 | 10.0 | 0.02 | 0.07 | 0.02 | 86 | 1007.5 |
| 20260507085040 | 50 | 315 | 3.0 | 13.0 | 0.02 | 0.07 | 0.02 | 86 | 1007.1 |
| 20260507084018 | 50 | 315 | 4.0 | 14.0 | 0.01 | 0.06 | 0.01 | 85 | 1007.0 |
| 20260507083018 | 50 | 315 | 7.0 | 15.0 | 0.01 | 0.06 | 0.01 | 84 | 1007.0 |
| 20260507082116 | 50 | 315 | 8.0 | 18.0 | 0.01 | 0.06 | 0.01 | 84 | 1007.1 |
| 20260507081020 | 51 | 315 | 7.0 | 15.0 | 0.01 | 0.06 | 0.01 | 84 | 1007.0 |
| 20260507080030 | 51 | 315 | 9.0 | 19.0 | 0.00 | 0.05 | 0.00 | 83 | 1006.8 |
| 20260507075020 | 52 | 315 | 6.0 | 14.0 | 0.00 | 0.05 | 0.00 | 84 | 1006.9 |
| 20260507074020 | 52 | 315 | 5.0 | 14.0 | 0.00 | 0.05 | 0.00 | 84 | 1006.7 |
| 20260507073040 | 52 | 293 | 5.0 | 13.0 | 0.00 | 0.05 | 0.00 | 85 | 1006.4 |
| 20260507072018 | 52 | 293 | 3.0 | 11.0 | 0.00 | 0.05 | 0.00 | 86 | 1006.6 |
| 20260507071019 | 53 | 293 | 3.0 | 9.0 | 0.00 | 0.05 | 0.00 | 87 | 1006.6 |
| 20260507070021 | 53 | 293 | 4.0 | 10.0 | 0.00 | 0.05 | 0.00 | 88 | 1006.6 |
| 20260507065108 | 53 | 293 | 2.0 | 8.0 | 0.00 | 0.05 | 0.00 | 88 | 1006.6 |
| 20260507064018 | 53 | 315 | 3.0 | 9.0 | 0.00 | 0.05 | 0.00 | 88 | 1006.4 |
| 20260507063040 | 53 | 315 | 3.0 | 10.0 | 0.00 | 0.05 | 0.00 | 89 | 1006.4 |
| 20260507062042 | 53 | 315 | 3.0 | 10.0 | 0.00 | 0.05 | 0.00 | 89 | 1006.7 |
| 20260507061020 | 53 | 293 | 1.0 | 5.0 | 0.00 | 0.05 | 0.00 | 89 | 1006.6 |
| 20260507060022 | 53 | 315 | 4.0 | 9.0 | 0.00 | 0.05 | 0.00 | 90 | 1006.9 |
| 20260507055547 | 53 | 315 | 4.0 | 10.0 | 0.00 | 0.05 | 0.00 | 90 | 1007.0 |
| 20260507054521 | 53 | 315 | 4.0 | 13.0 | 0.00 | 0.05 | 0.00 | 91 | 1006.8 |
| 20260507053520 | 53 | 315 | 6.0 | 13.0 | 0.00 | 0.05 | 0.00 | 92 | 1006.5 |
| 20260507052519 | 53 | 315 | 5.0 | 14.0 | 0.00 | 0.05 | 0.00 | 92 | 1006.7 |
| 20260507051521 | 55 | 315 | 6.0 | 16.0 | 0.00 | 0.05 | 0.00 | 92 | 1006.6 |
| 20260507050521 | 58 | 293 | 1.0 | 7.0 | 0.00 | 0.05 | 0.00 | 93 | 1006.6 |
| 20260507045521 | 57 | 293 | 1.0 | 8.0 | 0.00 | 0.05 | 0.00 | 93 | 1006.3 |
| 20260507044543 | 56 | 270 | 1.0 | 3.0 | 0.00 | 0.05 | 0.00 | 93 | 1006.5 |
| 20260507043519 | 56 | 270 | 1.0 | 4.0 | 0.00 | 0.05 | 0.00 | 93 | 1006.5 |
| 20260507042519 | 56 | 270 | 2.0 | 8.0 | 0.00 | 0.05 | 0.00 | 93 | 1006.4 |
| 20260507041519 | 56 | 270 | 1.0 | 7.0 | 0.00 | 0.05 | 0.00 | 93 | 1006.7 |
| 20260507040519 | 55 | 270 | 2.0 | 7.0 | 0.00 | 0.05 | 0.00 | 93 | 1006.6 |
| 20260507040021 | 55 | 270 | 1.0 | 6.0 | 0.00 | 0.05 | 0.05 | 93 | 1006.6 |
| 20260507035020 | 55 | 270 | 4.0 | 11.0 | 0.00 | 0.05 | 0.05 | 92 | 1006.8 |
| 20260507034018 | 55 | 270 | 3.0 | 11.0 | 0.00 | 0.05 | 0.05 | 92 | 1006.6 |
| 20260507033018 | 55 | 248 | 3.0 | 10.0 | 0.00 | 0.05 | 0.05 | 92 | 1006.3 |
| 20260507032017 | 55 | 270 | 3.0 | 11.0 | 0.00 | 0.05 | 0.05 | 92 | 1006.0 |
| 20260507031018 | 55 | 270 | 3.0 | 10.0 | 0.00 | 0.05 | 0.05 | 92 | 1006.0 |
| 20260507030018 | 55 | 270 | 6.0 | 14.0 | 0.00 | 0.05 | 0.05 | 92 | 1005.9 |
| 20260507025059 | 55 | 270 | 5.0 | 15.0 | 0.00 | 0.05 | 0.05 | 92 | 1006.1 |
| 20260507024018 | 56 | 270 | 3.0 | 13.0 | 0.00 | 0.05 | 0.05 | 92 | 1006.1 |
| 20260507023020 | 56 | 248 | 2.0 | 8.0 | 0.00 | 0.05 | 0.05 | 92 | 1006.1 |
| 20260507022019 | 55 | 270 | 3.0 | 12.0 | 0.00 | 0.05 | 0.05 | 92 | 1006.3 |
| 20260507021331 | 55 | 225 | 3.0 | 11.0 | 0.00 | 0.05 | 0.05 | 92 | 1006.1 |
| 20260507020517 | 55 | 248 | 3.0 | 12.0 | 0.00 | 0.05 | 0.05 | 92 | 1006.4 |
| 20260507020008 | 55 | 248 | 3.0 | 14.0 | 0.00 | 0.05 | 0.05 | 92 | 1006.3 |
| 20260507015020 | 55 | 225 | 5.0 | 15.0 | 0.00 | 0.05 | 0.05 | 92 | 1006.5 |
| 20260507014019 | 55 | 248 | 4.0 | 12.0 | 0.00 | 0.05 | 0.05 | 92 | 1006.4 |
| 20260507013040 | 55 | 248 | 5.0 | 18.0 | 0.00 | 0.05 | 0.05 | 92 | 1006.6 |
| 20260507012019 | 55 | 248 | 4.0 | 13.0 | 0.00 | 0.05 | 0.05 | 92 | 1006.5 |
| 20260507011019 | 55 | 248 | 6.0 | 18.0 | 0.01 | 0.05 | 0.05 | 92 | 1006.7 |
| 20260507010021 | 55 | 248 | 5.0 | 14.0 | 0.01 | 0.05 | 0.05 | 92 | 1006.6 |
| 20260507005019 | 54 | 248 | 6.0 | 16.0 | 0.01 | 0.05 | 0.05 | 92 | 1006.7 |
| 20260507004026 | 54 | 248 | 5.0 | 16.0 | 0.02 | 0.05 | 0.05 | 92 | 1006.6 |
| 20260507003101 | 53 | 225 | 5.0 | 20.0 | 0.02 | 0.05 | 0.05 | 91 | 1006.6 |
| 20260507002019 | 53 | 225 | 3.0 | 12.0 | 0.02 | 0.05 | 0.05 | 91 | 1006.8 |
| 20260507001019 | 53 | 225 | 5.0 | 14.0 | 0.01 | 0.04 | 0.04 | 92 | 1006.8 |
| 20260507000019 | 53 | 248 | 5.0 | 14.0 | 0.01 | 0.04 | 0.04 | 91 | 1006.8 |
| 20260506235023 | 53 | 225 | 4.0 | 13.0 | 0.01 | 0.04 | 0.04 | 91 | 1006.7 |
| 20260506234019 | 54 | 225 | 4.0 | 16.0 | 0.00 | 0.03 | 0.03 | 91 | 1006.8 |
| 20260506233019 | 53 | 225 | 4.0 | 10.0 | 0.00 | 0.03 | 0.03 | 91 | 1006.9 |
| 20260506232021 | 53 | 225 | 4.0 | 15.0 | 0.00 | 0.03 | 0.03 | 91 | 1006.8 |
| 20260506231021 | 54 | 225 | 4.0 | 13.0 | 0.01 | 0.03 | 0.03 | 90 | 1007.0 |
| 20260506230041 | 54 | 225 | 3.0 | 12.0 | 0.01 | 0.03 | 0.03 | 91 | 1006.9 |
| 20260506225010 | 54 | 225 | 5.0 | 10.0 | 0.01 | 0.03 | 0.03 | 91 | 1007.0 |
| 20260506224603 | 54 | 225 | 4.0 | 12.0 | 0.01 | 0.03 | 0.03 | 90 | 1007.1 |
| 20260506223541 | 54 | 225 | 4.0 | 12.0 | 0.01 | 0.03 | 0.03 | 90 | 1007.3 |
| 20260506222519 | 55 | 225 | 4.0 | 9.0 | 0.01 | 0.03 | 0.03 | 90 | 1007.3 |
| 20260506221541 | 55 | 225 | 4.0 | 12.0 | 0.01 | 0.02 | 0.02 | 90 | 1007.4 |
| 20260506220524 | 55 | 248 | 5.0 | 13.0 | 0.02 | 0.02 | 0.02 | 89 | 1007.5 |
| 20260506215519 | 55 | 225 | 5.0 | 17.0 | 0.02 | 0.02 | 0.02 | 89 | 1007.5 |
| 20260506214524 | 55 | 225 | 5.0 | 13.0 | 0.02 | 0.02 | 0.02 | 89 | 1007.6 |
| 20260506213521 | 55 | 225 | 4.0 | 12.0 | 0.02 | 0.02 | 0.02 | 89 | 1007.7 |
| 20260506212521 | 55 | 225 | 4.0 | 16.0 | 0.02 | 0.02 | 0.02 | 88 | 1007.8 |
| 20260506211526 | 55 | 248 | 7.0 | 17.0 | 0.01 | 0.01 | 0.01 | 87 | 1007.9 |
| 20260506210525 | 56 | 225 | 3.0 | 10.0 | 0.00 | 0.00 | 0.00 | 86 | 1008.0 |
| 20260506205519 | 56 | 225 | 4.0 | 14.0 | 0.00 | 0.00 | 0.00 | 86 | 1008.0 |
| 20260506204521 | 56 | 270 | 3.0 | 11.0 | 0.00 | 0.00 | 0.00 | 86 | 1008.0 |
| 20260506203521 | 56 | 225 | 3.0 | 10.0 | 0.00 | 0.00 | 0.00 | 86 | 1007.9 |
| 20260506202521 | 55 | 248 | 3.0 | 11.0 | 0.00 | 0.00 | 0.00 | 86 | 1007.7 |
| 20260506201550 | 56 | 225 | 4.0 | 15.0 | 0.00 | 0.00 | 0.00 | 85 | 1007.9 |
| 20260506200539 | 56 | 248 | 5.0 | 15.0 | 0.00 | 0.00 | 0.00 | 85 | 1008.1 |
| 20260506195524 | 56 | 248 | 6.0 | 15.0 | 0.00 | 0.00 | 0.00 | 84 | 1008.2 |
| 20260506194521 | 57 | 248 | 4.0 | 12.0 | 0.00 | 0.00 | 0.00 | 82 | 1008.3 |
| 20260506193519 | 57 | 225 | 5.0 | 14.0 | 0.00 | 0.00 | 0.00 | 82 | 1008.4 |
| 20260506192521 | 57 | 248 | 6.0 | 16.0 | 0.00 | 0.00 | 0.00 | 81 | 1008.2 |
| 20260506191521 | 58 | 225 | 6.0 | 15.0 | 0.00 | 0.00 | 0.00 | 81 | 1008.2 |
| 20260506190519 | 58 | 225 | 5.0 | 14.0 | 0.00 | 0.00 | 0.00 | 81 | 1008.3 |
| 20260506190019 | 58 | 248 | 5.0 | 17.0 | 0.00 | 0.00 | 0.00 | 81 | 1008.2 |
| 20260506185019 | 58 | 248 | 6.0 | 19.0 | 0.00 | 0.00 | 0.00 | 81 | 1008.2 |
| 20260506184021 | 58 | 248 | 4.0 | 16.0 | 0.00 | 0.00 | 0.00 | 81 | 1008.2 |
| 20260506183022 | 58 | 225 | 4.0 | 13.0 | 0.00 | 0.00 | 0.00 | 81 | 1008.3 |
| 20260506182019 | 58 | 225 | 5.0 | 13.0 | 0.00 | 0.00 | 0.00 | 80 | 1008.6 |
| 20260506181019 | 58 | 248 | 4.0 | 23.0 | 0.00 | 0.00 | 0.00 | 80 | 1008.7 |
| 20260506180021 | 58 | 225 | 4.0 | 10.0 | 0.00 | 0.00 | 0.00 | 80 | 1008.8 |
| 20260506175019 | 59 | 248 | 3.0 | 14.0 | 0.00 | 0.00 | 0.00 | 79 | 1008.8 |
| 20260506174019 | 59 | 248 | 5.0 | 15.0 | 0.00 | 0.00 | 0.00 | 80 | 1008.9 |
| 20260506173019 | 58 | 248 | 5.0 | 14.0 | 0.00 | 0.00 | 0.00 | 80 | 1008.9 |
| 20260506172021 | 58 | 248 | 3.0 | 12.0 | 0.00 | 0.00 | 0.00 | 80 | 1008.9 |
| 20260506171020 | 58 | 248 | 3.0 | 11.0 | 0.00 | 0.00 | 0.00 | 80 | 1009.2 |
| 20260506170019 | 59 | 248 | 6.0 | 17.0 | 0.00 | 0.00 | 0.00 | 79 | 1009.2 |
| 20260506165019 | 59 | 225 | 4.0 | 14.0 | 0.00 | 0.00 | 0.00 | 79 | 1009.4 |
| 20260506164101 | 59 | 248 | 5.0 | 15.0 | 0.00 | 0.00 | 0.00 | 79 | 1009.6 |
| 20260506163023 | 59 | 225 | 5.0 | 15.0 | 0.00 | 0.00 | 0.00 | 79 | 1009.8 |
| 20260506162041 | 59 | 225 | 5.0 | 13.0 | 0.00 | 0.00 | 0.00 | 78 | 1009.9 |
| 20260506161020 | 59 | 225 | 6.0 | 12.0 | 0.00 | 0.00 | 0.00 | 78 | 1010.0 |
| 20260506160018 | 60 | 225 | 4.0 | 13.0 | 0.00 | 0.00 | 0.00 | 77 | 1010.2 |
| 20260506155018 | 60 | 248 | 5.0 | 14.0 | 0.00 | 0.00 | 0.00 | 77 | 1010.4 |
| 20260506154028 | 61 | 225 | 5.0 | 14.0 | 0.00 | 0.00 | 0.00 | 78 | 1010.5 |
| 20260506153542 | 60 | 225 | 5.0 | 12.0 | 0.00 | 0.00 | 0.00 | 78 | 1010.6 |
| 20260506152525 | 59 | 203 | 5.0 | 12.0 | 0.00 | 0.00 | 0.00 | 79 | 1010.6 |
| 20260506152019 | 59 | 203 | 5.0 | 11.0 | 0.00 | 0.00 | 0.00 | 79 | 1010.8 |
| 20260506151018 | 59 | 225 | 6.0 | 14.0 | 0.00 | 0.00 | 0.00 | 79 | 1010.6 |
| 20260506150108 | 60 | 270 | 3.0 | 11.0 | 0.00 | 0.00 | 0.00 | 80 | 1010.6 |
| 20260506145743 | 59 | 203 | 2.0 | 8.0 | 0.00 | 0.00 | 0.00 | 80 | 1010.5 |
| 20260506145022 | 59 | 225 | 2.0 | 9.0 | 0.00 | 0.00 | 0.00 | 80 | 1010.5 |
| 20260506144523 | 59 | 225 | 4.0 | 11.0 | 0.00 | 0.00 | 0.00 | 81 | 1010.5 |
| 20260506144038 | 59 | 225 | 6.0 | 17.0 | 0.00 | 0.00 | 0.00 | 80 | 1010.5 |
| 20260506143020 | 59 | 203 | 5.0 | 14.0 | 0.00 | 0.00 | 0.00 | 81 | 1010.4 |
| 20260506142020 | 58 | 225 | 4.0 | 13.0 | 0.00 | 0.00 | 0.00 | 81 | 1010.5 |
| 20260506141018 | 59 | 225 | 4.0 | 12.0 | 0.00 | 0.00 | 0.00 | 81 | 1010.5 |
| 20260506140042 | 59 | 225 | 7.0 | 14.0 | 0.00 | 0.00 | 0.00 | 80 | 1010.7 |
| 20260506135020 | 60 | 225 | 6.0 | 13.0 | 0.00 | 0.00 | 0.00 | 81 | 1010.9 |
| 20260506134020 | 60 | 203 | 7.0 | 15.0 | 0.00 | 0.00 | 0.00 | 82 | 1010.9 |
| 20260506133022 | 59 | 225 | 7.0 | 20.0 | 0.00 | 0.00 | 0.00 | 82 | 1010.7 |
| 20260506132107 | 59 | 225 | 6.0 | 18.0 | 0.00 | 0.00 | 0.00 | 83 | 1010.7 |
| 20260506131558 | 59 | 225 | 6.0 | 14.0 | 0.00 | 0.00 | 0.00 | 84 | 1010.9 |
| 20260506131020 | 58 | 225 | 7.0 | 15.0 | 0.00 | 0.00 | 0.00 | 84 | 1010.9 |
| 20260506130018 | 57 | 225 | 6.0 | 13.0 | 0.00 | 0.00 | 0.00 | 85 | 1011.0 |
| 20260506125020 | 57 | 225 | 6.0 | 14.0 | 0.00 | 0.00 | 0.00 | 85 | 1011.1 |
| 20260506124018 | 56 | 225 | 5.0 | 14.0 | 0.00 | 0.00 | 0.00 | 85 | 1010.8 |
| 20260506123020 | 56 | 225 | 6.0 | 14.0 | 0.00 | 0.00 | 0.00 | 86 | 1010.7 |
| 20260506122018 | 56 | 225 | 6.0 | 15.0 | 0.00 | 0.00 | 0.00 | 86 | 1010.9 |